730  
ASUS43 KIWX 292010  
RWRIWX  
 
KIWX WEATHER ROUNDUP  
NATIONAL WEATHER SERVICE NORTHERN INDIANA  
400 PM EDT MON MAY 29 2017  
 
NOTE: "FAIR" INDICATES FEW OR NO CLOUDS BELOW 12,000 FEET WITH NO  
SIGNIFICANT WEATHER AND/OR S TO VISIBILITY
.  
 
* THESE STATIONS ARE NOT UNDER NWS QUALITY CONTROL. THEY ALSO MAY NOT  
REPORT WEATHER SUCH AS PRECIPITATION OR FOG.
 
 
INZ001>027-292100-  
NORTHERN INDIANA  
 
CITY SKY/WX TMP DP RH WIND PRES REMARKS
 
GARY* MOSUNNY 79 39 24 W14 29.84S  
VALPARAISO MOSUNNY 81 48 31 W17G29 29.84F  
MICHIGAN CITY* MOSUNNY 77 48 36 W14G21 29.84S  
LAPORTE* SUNNY 78 47 33 W15G29 29.85S  
KNOX* MOSUNNY 77 34 20 W26G35 29.83F  
SOUTH BEND MOSUNNY 78 47 33 W21G36 29.83F  
ELKHART* SUNNY 75 46 35 W15 29.83F  
GOSHEN MOSUNNY 75 46 35 W14G25 29.84S  
MONTICELLO* PTSUNNY 80 43 26 W20G31 29.85S  
LOGANSPORT* PTSUNNY 77 45 31 W13G25 29.87S  
ROCHESTER* SUNNY 81 41 24 W14G26 29.85F  
WARSAW* CLOUDY 75 46 35 W18 29.85S  
ANGOLA* MOSUNNY 77 50 38 SW9 29.84S  
FORT WAYNE MOSUNNY 78 50 37 SW20 29.86F  
HUNTINGTON* PTSUNNY 75 46 35 W14G20 29.86F  
PERU/GRISSOM MOSUNNY 81 49 32 W17G25 29.85F  
MARION* SUNNY 79 46 31 W16G23 29.89S  
 

 
INZ028>050-292100-  
CENTRAL INDIANA  
 
CITY SKY/WX TMP DP RH WIND PRES REMARKS
 
LAFAYETTE PTSUNNY 79 49 34 W13 29.85F  
KOKOMO* PTSUNNY 78 51 38 W14 29.88F  
MUNCIE* SUNNY 81 45 28 W16G25 29.90R  
INDIANAPOLIS MOSUNNY 81 50 33 W17G30 29.90S  
 

 
MIZ043>046-050>051-056>058-064>065-071>073-077>080-292100-  
SOUTHWEST LOWER MICHIGAN  
 
CITY SKY/WX TMP DP RH WIND PRES REMARKS
 
BATTLE CREEK CLOUDY 76 46 34 W20G35 29.82F  
BENTON HARBOR SUNNY 75 47 36 SW16 29.83S  
COLDWATER* CLOUDY 76 46 33 W14 29.83S  
HILLSDALE* RAIN 66 52 59 W7 29.84S  
HOLLAND MOSUNNY 71 46 40 W14 29.83R  
GRAND RAPIDS MOSUNNY 75 46 35 W23G35 29.80S  
KALAMAZOO MOSUNNY 77 42 28 W20G35 29.82S  
STURGIS* MOSUNNY 76 48 37 W17G25 29.83S  
THREE RIVERS* FAIR 75 46 35 W12G20 29.83F  
 

 
OHZ001>008-015>018-024>025-292100-  
NORTHWEST OHIO  
 
CITY SKY/WX TMP DP RH WIND PRES REMARKS
 
WAUSEON* FAIR 81 48 32 SW20 29.84S  
DEFIANCE MOSUNNY 78 50 37 SW12G20 29.85F  
FINDLAY MOSUNNY 80 50 34 SW16G23 29.87R  
TOLEDO EXPRESS PTSUNNY 76 49 38 W17 29.84S  
TOLEDO METCALF MOSUNNY 81 50 33 SW16 29.85R  
LIMA SUNNY 78 51 38 W20 29.89S  
 

 
AND FOR LAKE MICHIGAN COASTAL AND OPEN LAKE BUOY OBSERVATIONS  
 
STATION/POSITION TEMP WIND PRES VSBY WAVE
 
AIR SEA DIR/SP/G HT/PER  
(F) (DEG/KT/KT) (MB) (MI) (FT/S)  
CALUMET HARBOR 77 240/ 10/ 19 1009.6F  
MICHIGAN CITY 67 250/ 21/ 22 N/A  
BURNS HARBOR 70 260/ 18/ 21 1010.5  
SOUTH LAKE BUOY 52 48 230/ 8/ 8 1009.7 1  
4 MI NW BRIDGMAN 63 60 260/ 10/ 12 1010.4 1  
MICHIGAN CITY 63 56 270/ 10/ 14 N/A 2/ 3  
 

 

 
 
 
CLICK HERE TO GO TO PREVIOUS BULLETINS.

The Nexlab IN Page
The Nexlab OH Page
The Nexlab MI Page Main Text Page